Location: Gwatt
(46.7204°N, 7.6223°E)
Time: 01:50:02
(UTC+00:00)

Transit 2A - Pass Details

Date: 26 January 2021
Orbit: 601 x 958 km, 66.7° (Epoch: 07 March)

Event Time Altitude Azimuth Distance (km) Brightness Sun altitude
Rises 02:59:14 0° 210° (SSW) 3,499 - -41.0°
Reaches altitude 10° 03:01:50 10° 210° (SSW) 2,517 - -40.6°
Maximum altitude 03:07:39 86° 122° (ESE) 822 - -39.7°
Exits shadow 03:12:05 15° 35° (NE) 1,969 8.5 -38.9°
Drops below altitude 10° 03:12:57 10° 35° (NE) 2,290 8.9 -38.8°
Sets 03:15:13 0° 35° (NE) 3,163 9.8 -38.4°
